星链-2642 (STARLINK-2642 )

导读 | 星芒AI

STARLINK-2642 是 SpaceX 星链计划中的一颗低轨通信卫星,属于第26组星链卫星的一部分。该卫星于2023年发射,旨在为全球用户提供高速互联网服务。它运行在约550公里高的近地轨道,采用先进通信技术,支持宽带数据传输。星链项目通过部署大量卫星,构建覆盖全球的网络,服务于偏远地区及传统网络难以覆盖的区域。STARLINK-2642 的加入进一步增强了星链系统的稳定性和覆盖能力。

基本信息
目录编号:
48437
目录名称:
STARLINK-2642
国际标识:
2021-040K
轨道中心:
EARTH
卫星名称:
星链-2642
卫星全名:
星链-2642 (STARLINK-2642 )
卫星状态:
在轨 (已飞行1684 天)
发射日期:
2021-05-09 UTC
国别 :
美国 (US)
星等 :
--
轨道信息
数据来源 国际轨道数据 AOE轨道数据
星历时间 2025-12-18T04:54:24+0800
14小时前
查看轨道信息
2025-12-14T20:00:00+0800
3天前
查看轨道信息
半长轴 6925.333km 6925.439km
偏心率 0.0001704 0.0001583
轨道倾角 53.054° 53.053°
近地点辐角 100.491° 90.778°
升交点赤经 198.919° 214.052°
平近点角 259.627° 337.613°
近地点 546.017km 546.207km
远地点 548.379km 548.401km
周期 95.592分钟 95.594分钟
每日圈数 15.064053 15.063707
详细信息
固有亮度:
5
最大亮度:
2.5
卫星平台:
Starlink V1.0
覆盖范围:
全球
运营商:
太空探索技术公司
运营商所在国:
美国
制造商(研发单位):
太空探索技术公司
制造商所在国:
美国
使用方式:
暂无
卫星简介
星链(Starlink)计划是由太空探索技术公司(SpaceX)提出的一个巨型低轨卫星互联网星座项目,计划在2019年至2024年间在太空搭建由约1.2万颗卫星组成的“星链”网络,其中1584颗将部署在地球上空550千米处的近地轨道,并从2020年开始工作。该卫星仍在工作。
2D轨道图
3D轨道图
轨道高度分析图
轨道倾角分析图
轨道综合分析图
查看轨道综合分析图